Flag for U.S.A. Weather past 2 weeks in Tacoma, Washington, U.S.A.

Now
66 °F

Scattered clouds.


Feels Like: 66 °F
Forecast: 51 / 63 °F
Wind: 9 mph from Southwest

Location: Tacoma Narrows Airport

Current Time: Sep 2, 2015 at 5:16:16 PM

Latest Report: Sep 2, 2015 at 4:53 PM


Visibility: 10 mi

Pressure: 29.91 "Hg

Humidity: 47%

Dew point: 45 °F

Location of TacomaLocation

Historic Weather in Tacoma — Graph

°F

Tacoma temperature yesterday

Maximum temperature yesterday: 64 °F (at 12:53 PM)
Minimum temperature yesterday: 57 °F (at 11:53 PM)
Average temperature yesterday: 61 °F

Past Weeks' High & Low Weather Summary

 TemperatureHumidityPressure
High86 °F (Aug 19, 4:53 PM)97% (Aug 29, 5:53 AM)30.12 "Hg (Aug 29, 5:53 AM)
Low51 °F (Aug 25, 5:53 AM)24% (Aug 27, 3:53 PM)29.53 "Hg (Aug 29, 3:53 AM)
Average65 °F65%29.94 "Hg
* Reported Aug 18 3:53 PM — Sep 2 3:53 PM, Tacoma, Weather by CustomWeather, © 2015

Note: Actual official high and low records may vary slightly from our data, if they occured in-between our weather recording intervals... More about our weather records

Advertising

Tacoma weather history for previous 24 hours

 ConditionsComfort  
Time TempWeatherWind HumidityBarometerVisibility
3:53 PM
Wed, Sep 2
67 °FScattered clouds.8 mph47%29.89 "Hg10 mi
2:53 PM63 °FScattered clouds.3 mph60%29.90 "Hg10 mi
1:53 PM62 °FBroken clouds.7 mph65%29.92 "Hg10 mi
12:53 PM62 °FPartly sunny.9 mph60%29.92 "Hg10 mi
11:53 AM62 °FScattered clouds.7 mph62%29.91 "Hg10 mi
10:53 AM62 °FScattered clouds.8 mph62%29.90 "Hg10 mi
9:53 AM60 °FScattered clouds.12 mph72%29.90 "Hg10 mi
8:53 AM57 °FBroken clouds.12 mph87%29.89 "Hg10 mi
7:58 AM55 °FMostly cloudy.10 mph93%29.89 "Hg10 mi
6:53 AM55 °FPassing clouds.6 mph93%29.86 "Hg10 mi
5:53 AM55 °FClear.9 mph90%29.84 "Hg10 mi
4:53 AM56 °FPassing clouds.8 mph93%29.83 "Hg10 mi
3:53 AM56 °FPassing clouds.10 mph93%29.83 "Hg10 mi
2:53 AM56 °FPassing clouds.10 mph93%29.82 "Hg10 mi
1:53 AM57 °FPassing clouds.13 mph90%29.80 "Hg10 mi
1:02 AM57 °FLight rain. Mostly cloudy.12 mph93%29.81 "Hg10 mi
11:53 PM
Tue, Sep 1
57 °FLight rain. Overcast.10 mph90%29.81 "Hg10 mi
10:53 PM58 °FMostly cloudy.9 mph87%29.81 "Hg10 mi
9:53 PM58 °FMostly cloudy.12 mph90%29.81 "Hg10 mi
8:53 PM58 °FClear.9 mph90%29.81 "Hg10 mi
7:53 PM59 °FBroken clouds.9 mph90%29.80 "Hg10 mi
6:53 PM59 °FBroken clouds.10 mph90%29.79 "Hg10 mi
6:02 PM58 °FLight rain. Fog.8 mph97%29.80 "Hg4 mi
5:55 PM58 °FLight rain. Fog.6 mph97%29.79 "Hg2 mi
Weather by CustomWeather, © 2015

See weather overviewHow to use our weather pages